Temperature
27 24 23 24 25 26 27 27 27 28 28 28 26 25 26 26 25 25 24 24 24 24 24 24 24 23 23 22 22 22 21 21 21 20 20 20 20 19 19 19 19 19 19 19
24 24 25 26 27 28 27 27 27 27 28 28 26 26 26 26 26 25 25 25 24 24 24 24 24 23 23 22 22 22 21 21 21 21 20 20 20 20 19 19 19 19 19 19
24 25 27 27 27 28 27 27 27 27 28 27 26 25 25 26 26 26 25 25 25 24 24 24 23 23 23 23 22 22 21 21 21 20 20 20 19 19 19 19 19 19 19 19
25 26 27 27 28 28 26 28 28 28 26 24 25 23 24 25 25 25 25 25 25 24 24 24 24 23 23 23 23 22 22 21 21 20 20 20 20 19 19 19 19 19 19 18
25 27 27 27 28 29 28 29 28 28 25 24 24 23 23 24 24 24 25 25 25 25 24 24 24 24 24 23 23 22 22 21 21 20 20 20 20 19 19 19 19 19 18 18
25 27 28 28 29 29 29 27 25 22 22 23 24 24 23 23 24 24 25 25 25 25 24 24 24 24 23 23 22 22 22 21 21 20 20 20 20 19 19 19 19 19 18 18
26 26 28 29 28 28 27 23 22 23 21 22 23 24 23 24 25 25 25 25 25 25 24 24 24 24 23 23 22 22 22 21 21 20 20 20 20 19 19 19 19 18 18 18
24 24 26 28 27 26 25 23 22 23 22 22 23 24 24 25 26 26 26 25 25 25 25 24 24 24 24 23 22 22 22 21 21 20 20 20 19 19 19 19 18 18 18 18
23 23 26 28 28 27 26 23 22 21 22 22 22 23 24 25 25 25 25 25 25 24 24 24 24 24 24 23 23 22 22 21 21 20 20 20 19 19 19 19 18 18 18 18
23 24 26 28 29 28 26 25 21 21 22 22 23 24 23 24 24 24 23 24 24 24 24 24 24 23 23 23 22 22 21 21 21 20 20 19 19 19 19 18 18 18 18 18
23 23 24 26 26 26 27 26 22 19 20 21 22 23 24 24 24 23 23 24 24 24 24 24 24 23 23 22 22 22 21 21 20 20 20 19 19 19 18 18 18 18 18 17
23 21 21 23 25 26 26 25 22 22 22 20 21 22 24 23 24 24 24 24 24 24 24 24 24 23 22 22 21 21 21 20 20 20 19 19 19 18 18 18 18 18 17 17
23 21 21 22 23 25 26 25 22 20 19 19 21 23 24 23 24 24 24 23 23 23 23 23 23 23 22 22 21 21 20 20 20 19 19 19 18 18 18 18 17 17 17 17
23 20 21 22 22 24 25 26 24 21 20 21 22 23 23 23 22 22 23 23 23 23 23 23 23 22 22 21 21 20 20 20 19 19 19 18 18 18 18 17 17 17 17 17
22 21 22 23 24 25 26 26 26 24 22 22 23 22 22 22 22 23 23 23 23 23 23 23 22 22 21 21 21 20 20 19 19 19 18 18 18 18 17 17 17 17 17 16
19 21 23 24 25 26 26 26 26 25 24 24 23 23 22 23 23 23 23 23 22 22 22 22 22 22 21 21 20 20 19 19 19 18 18 18 18 17 17 17 17 16 16 16
19 20 20 21 24 25 24 25 25 25 25 24 23 23 22 22 22 22 23 23 22 22 22 22 22 21 21 20 20 20 19 19 19 18 18 18 17 17 17 16 16 16 16 16
19 18 17 20 23 23 22 23 25 24 24 23 23 23 22 22 23 23 23 23 22 22 22 22 21 21 20 20 20 20 19 19 18 18 18 17 17 16 16 16 16 16 15 15
18 18 18 18 20 22 23 24 24 24 23 23 22 22 23 23 22 21 22 23 23 22 22 22 21 21 20 20 20 19 19 18 18 18 17 17 16 16 16 16 15 15 15 15
18 18 18 18 21 21 22 23 25 23 22 22 22 22 22 22 20 19 21 22 22 22 22 21 21 20 20 20 19 19 18 18 18 17 17 16 16 16 15 15 15 15 15 14
19 18 18 18 20 20 21 23 24 22 21 22 23 23 23 21 21 22 21 22 21 21 21 21 20 20 20 19 19 19 18 17 17 16 16 16 16 15 15 15 14 14 14 14
18 17 17 17 19 19 21 21 21 20 22 23 23 23 23 22 22 21 21 21 21 21 20 20 20 19 19 19 18 18 18 17 16 16 16 15 15 15 15 14 14 14 14 13
16 17 16 17 17 19 21 21 21 22 22 22 22 23 23 21 21 21 20 20 20 20 20 19 19 18 18 18 18 17 17 16 16 15 15 15 15 14 14 14 14 13 13 13
16 16 16 16 17 18 20 21 22 22 22 22 23 23 22 21 20 20 20 19 19 19 19 18 18 18 17 17 17 17 16 16 15 15 15 14 14 14 14 13 13 13 13 13
15 15 15 16 17 18 19 20 21 21 22 22 22 22 22 21 19 19 19 19 19 18 18 18 17 17 16 16 16 16 16 15 15 15 14 14 14 14 13 13 13 13 13 13
14 15 15 15 16 16 17 19 20 20 21 20 20 20 20 20 19 19 18 18 18 17 17 17 17 16 16 15 15 15 15 15 15 14 14 14 13 13 13 13 13 12 12 12
Wind_Speed
1 3 4 8 7 7 4 3 3 4 3 5 7 9 12 13 12 13 13 13 13 13 11 12 13 13 12 10 10 10 9 8 6 4 3 2 2 2 2 3 7 8 8 9
3 5 11 8 6 5 3 2 3 3 1 3 5 5 8 11 13 15 16 16 15 11 9 10 12 13 13 12 10 9 10 9 7 5 4 3 3 2 3 2 3 5 6 7
7 8 6 6 6 5 4 3 4 3 2 4 5 2 2 6 7 8 12 14 15 16 15 13 13 13 12 12 12 10 9 8 7 6 4 2 1 1 1 1 1 3 5 6
7 9 7 6 5 5 5 5 3 2 4 1 4 2 6 6 5 8 11 12 14 14 12 12 12 12 13 12 11 10 9 8 7 7 5 5 4 4 4 3 2 3 4 5
7 6 6 7 8 5 6 4 1 2 4 2 2 3 7 3 5 8 11 14 14 14 14 14 13 12 11 11 10 8 8 7 7 7 7 6 4 4 2 2 2 3 3 4
8 7 6 8 7 5 3 4 7 7 5 1 4 4 5 6 11 10 9 11 13 14 13 13 11 9 8 8 8 8 7 6 7 7 6 6 6 4 3 2 2 3 3 3
5 7 6 4 2 3 5 7 4 5 4 5 5 3 8 9 10 11 11 10 11 11 12 12 11 11 10 10 9 8 9 7 6 6 6 6 6 5 4 4 3 3 2 2
5 7 7 5 8 6 5 11 9 5 5 5 4 4 7 6 6 8 9 9 10 10 11 12 12 12 11 12 10 9 9 7 7 6 6 5 5 4 3 3 3 3 2 2
8 7 7 7 7 10 6 6 10 8 3 0 5 5 5 2 3 5 8 9 9 10 11 12 10 9 9 9 9 9 9 7 7 7 6 5 5 4 3 3 2 1 1 1
7 5 7 6 3 4 9 9 7 6 4 2 5 4 4 4 6 6 8 10 9 9 11 11 10 9 8 8 8 7 7 7 5 5 5 4 4 4 3 2 2 1 0 1
8 5 6 2 6 9 5 5 6 6 6 7 3 7 6 9 9 9 9 10 11 9 11 11 10 10 9 8 8 7 7 6 5 5 4 4 3 2 2 2 1 1 1 1
9 6 5 8 7 8 9 9 9 6 4 6 5 7 7 6 7 9 9 9 10 10 10 10 10 9 8 8 7 7 6 6 5 5 4 4 3 3 3 2 2 2 2 2
9 7 3 6 7 1 4 6 7 7 6 6 5 6 4 3 6 8 10 10 10 11 10 10 9 8 8 8 7 6 6 5 5 5 5 5 4 4 4 3 3 2 2 2
8 6 8 10 9 5 4 4 6 7 5 5 7 6 2 4 7 7 9 9 10 11 11 10 9 8 7 7 7 6 6 6 6 6 6 5 4 4 4 4 3 3 3 3
7 7 7 7 7 4 4 5 5 6 9 9 8 8 9 10 11 11 11 11 11 11 11 11 9 8 8 7 7 7 7 6 6 7 6 5 5 5 5 4 4 4 4 4
4 5 5 2 2 2 2 4 5 6 6 7 7 6 7 8 9 10 12 13 12 11 11 11 10 10 9 8 8 8 7 6 7 7 6 6 6 6 5 5 5 5 5 5
3 5 5 2 1 2 4 6 5 4 4 7 8 8 7 9 11 13 12 12 12 12 11 10 10 10 9 9 9 8 8 7 7 7 7 6 6 6 5 6 6 6 5 6
5 4 4 3 3 5 9 5 5 4 2 4 7 8 10 12 10 7 9 12 11 11 10 9 9 9 8 8 8 8 8 8 8 7 6 6 6 6 6 6 7 6 6 7
7 7 4 4 4 4 6 3 3 5 3 3 7 8 9 11 9 5 3 8 9 10 9 8 8 9 9 9 9 10 8 7 8 7 6 6 7 7 7 7 6 6 7 7
6 7 6 5 5 6 7 6 2 6 1 4 7 11 11 10 7 4 4 8 9 8 8 8 9 9 9 9 9 10 9 8 8 7 6 6 7 7 7 7 6 6 6 7
4 4 5 4 3 5 6 6 3 4 7 5 6 10 10 7 8 8 8 9 9 9 9 9 10 9 8 8 10 10 9 8 7 8 7 7 6 6 7 6 6 6 6 7
5 4 5 5 4 6 5 3 3 6 4 3 5 8 10 10 11 11 11 10 10 9 9 9 9 8 7 8 9 9 8 7 8 9 8 7 6 6 6 6 6 6 6 7
3 6 6 6 6 5 1 2 2 4 5 3 6 8 13 13 12 12 10 9 9 9 8 8 9 8 7 7 9 10 8 9 9 9 8 8 7 6 5 5 5 5 5 5
4 2 3 3 0 1 2 3 4 4 5 5 8 11 13 13 13 11 10 9 8 7 8 8 9 8 7 6 7 8 9 9 10 10 8 7 8 7 6 5 4 4 4 5
3 3 3 2 1 4 5 5 4 5 7 9 9 11 12 14 12 11 10 8 7 7 7 8 8 8 7 7 7 7 9 11 11 10 8 7 7 7 6 6 5 3 2 3
2 1 2 2 3 2 2 2 3 7 7 8 10 9 9 10 12 11 9 7 7 8 8 8 8 7 7 8 8 7 8 10 11 9 8 6 6 6 6 6 6 10 7 7
Wind_Direction
277 84 234 235 214 206 229 256 250 245 208 133 154 174 188 186 187 186 189 190 189 192 188 177 175 174 168 169 169 169 168 173 164 156 160 170 197 209 214 210 207 205 205 203
22 254 239 241 251 239 246 283 274 284 267 131 152 174 192 188 193 192 191 188 186 182 181 179 177 175 174 175 176 175 174 174 172 171 169 173 180 205 216 225 203 203 204 206
206 241 242 240 252 256 271 226 223 226 342 42 88 16 216 213 211 203 196 189 184 184 188 185 182 182 176 179 179 181 179 173 173 169 155 148 112 327 262 241 220 222 219 224
237 249 250 240 240 216 258 241 185 161 99 264 121 197 263 222 219 203 197 190 189 188 184 184 185 184 182 184 180 170 170 171 172 167 165 166 179 206 225 217 219 235 230 231
242 237 228 228 231 214 230 226 139 125 118 35 22 139 272 228 207 215 203 195 192 187 178 181 188 189 184 178 173 165 163 175 174 172 177 183 198 211 219 212 221 248 256 248
246 259 224 217 229 212 198 50 32 44 69 3 247 166 264 218 206 205 204 191 187 181 176 175 173 169 165 163 163 159 164 178 179 177 181 187 196 206 212 214 219 249 260 262
282 282 261 219 224 323 112 94 40 5 13 255 260 169 243 236 207 190 185 180 175 173 171 166 163 165 162 160 164 166 172 179 183 184 186 189 191 194 203 211 220 238 255 265
209 265 248 211 184 186 171 138 152 181 210 272 321 225 255 249 199 168 161 155 156 163 164 165 170 170 167 168 168 169 174 181 183 189 193 188 185 191 205 211 211 224 233 250
192 242 261 225 190 160 158 169 165 141 163 308 290 288 313 19 127 141 139 137 150 160 163 165 166 163 162 166 168 170 173 175 178 187 185 181 184 189 198 206 203 219 249 263
175 234 274 253 190 180 164 154 101 116 147 234 290 278 239 215 176 159 144 141 148 159 163 159 153 154 154 155 149 156 161 168 168 173 178 182 188 191 188 177 174 186 263 5
178 196 286 323 190 197 163 136 120 129 152 153 222 267 232 200 182 168 162 152 148 154 156 152 153 155 151 147 148 153 158 154 155 162 163 155 159 156 151 146 163 131 66 55
178 156 235 254 247 196 173 175 148 155 206 162 166 263 271 185 169 149 148 146 143 147 148 145 144 141 140 141 144 149 152 155 157 152 142 135 123 116 112 105 99 96 73 58
164 144 191 316 322 287 178 174 158 141 134 153 162 257 311 102 118 129 135 142 142 143 139 133 134 136 137 138 138 140 142 143 134 128 124 117 113 110 105 92 87 90 84 70
146 134 168 198 214 209 206 203 164 134 158 194 203 220 267 150 137 134 134 137 142 141 137 138 137 136 137 136 138 141 134 132 126 119 118 117 119 115 109 100 88 86 89 86
129 160 176 196 209 188 200 215 201 180 181 180 207 198 206 184 162 153 144 141 138 141 144 146 142 140 140 137 134 133 130 128 124 116 114 116 112 106 99 91 80 75 78 81
94 147 152 203 229 177 229 237 223 204 186 181 172 209 212 179 146 140 147 146 147 150 149 148 146 145 145 144 141 136 130 126 119 117 117 111 105 100 94 90 82 78 74 74
89 113 123 202 288 85 254 232 215 211 204 170 185 207 170 151 155 159 155 150 153 153 150 151 151 151 150 149 144 138 131 123 117 116 113 109 108 104 99 98 87 81 76 75
126 104 121 132 106 207 243 245 166 157 210 174 168 174 167 164 160 153 150 148 148 148 147 150 147 144 142 137 132 126 121 123 121 119 116 113 110 108 102 98 95 87 82 82
140 131 115 123 159 260 292 294 174 162 237 208 162 155 145 130 95 68 128 144 150 150 145 145 144 139 136 136 133 126 124 127 124 123 120 118 120 117 112 108 103 95 93 87
89 108 115 122 147 212 249 285 263 120 240 269 155 151 145 124 129 187 166 133 128 126 127 126 125 124 131 140 136 130 132 131 129 127 121 116 119 120 119 117 108 98 97 96
79 78 125 141 174 248 260 297 51 140 217 237 158 151 143 144 163 162 140 124 123 123 122 120 122 127 136 140 134 130 130 133 130 120 114 111 111 113 116 111 108 108 104 99
163 156 168 145 169 244 292 20 131 202 204 160 138 138 130 125 121 125 127 125 124 120 119 119 122 122 124 127 129 129 129 130 124 119 116 110 106 111 112 109 109 111 113 104
171 183 177 176 199 232 260 141 188 158 130 125 132 130 124 122 126 129 127 126 125 123 121 119 121 119 116 123 131 132 134 130 123 118 115 109 97 87 96 109 116 117 116 114
326 20 102 94 69 10 36 53 45 84 113 112 123 126 124 125 129 125 125 125 124 122 123 122 118 120 120 120 124 131 134 129 123 119 115 109 102 87 73 76 87 107 116 122
308 357 61 93 152 41 22 26 49 76 92 98 106 115 121 124 127 128 127 127 125 122 123 125 125 127 127 123 123 127 131 128 123 121 118 110 105 103 87 72 58 79 87 155
324 98 127 200 231 157 237 329 77 95 103 113 113 108 115 127 130 127 127 127 127 127 126 124 123 125 128 129 130 131 133 132 131 131 129 125 121 117 115 110 82 51 59 75
Height
1505 1511 1517 1513 1511 1513 1515 1518 1520 1513 1503 1506 1513 1516 1516 1517 1520 1522 1524 1526 1527 1529 1532 1534 1537 1539 1541 1544 1546 1547 1548 1550 1551 1553 1554 1555 1556 1557 1557 1558 1558 1558 1558 1559
1512 1515 1506 1504 1505 1508 1511 1518 1518 1511 1504 1507 1514 1516 1513 1514 1515 1516 1518 1521 1523 1527 1530 1533 1535 1537 1539 1541 1543 1545 1546 1548 1549 1551 1552 1553 1554 1555 1556 1556 1556 1556 1556 1555
1513 1506 1500 1503 1506 1509 1511 1515 1515 1514 1508 1508 1516 1525 1519 1515 1514 1515 1517 1518 1520 1523 1526 1530 1532 1534 1537 1540 1541 1543 1545 1547 1548 1549 1550 1552 1552 1553 1553 1553 1553 1553 1553 1552
1506 1499 1499 1503 1505 1505 1515 1503 1504 1508 1519 1529 1523 1544 1526 1516 1515 1513 1514 1516 1518 1521 1524 1528 1530 1533 1534 1537 1539 1541 1543 1545 1546 1547 1548 1549 1549 1549 1550 1551 1551 1550 1550 1549
1504 1496 1498 1502 1499 1499 1503 1497 1502 1507 1518 1530 1528 1540 1533 1518 1518 1513 1511 1513 1515 1518 1521 1524 1527 1531 1533 1536 1538 1539 1541 1543 1544 1545 1546 1547 1547 1547 1548 1548 1548 1547 1547 1547
1497 1492 1492 1493 1491 1493 1495 1502 1509 1519 1530 1546 1532 1537 1536 1520 1512 1509 1508 1510 1512 1515 1518 1521 1525 1529 1532 1534 1536 1538 1539 1540 1542 1543 1544 1544 1545 1546 1546 1546 1545 1545 1544 1544
1500 1493 1488 1487 1493 1494 1499 1522 1545 1548 1557 1552 1530 1532 1530 1506 1500 1501 1504 1507 1509 1513 1516 1520 1524 1527 1529 1531 1534 1536 1537 1537 1539 1541 1542 1543 1543 1544 1544 1543 1543 1543 1542 1541
1512 1511 1490 1486 1491 1500 1503 1517 1546 1557 1559 1550 1531 1532 1516 1498 1497 1498 1501 1504 1508 1511 1514 1518 1521 1524 1526 1529 1531 1533 1534 1536 1537 1539 1540 1541 1541 1542 1542 1542 1541 1540 1539 1539
1509 1508 1485 1482 1482 1489 1502 1512 1515 1536 1541 1548 1541 1525 1508 1497 1498 1499 1501 1504 1507 1510 1513 1516 1520 1523 1525 1527 1529 1531 1533 1534 1535 1537 1538 1539 1540 1540 1540 1540 1539 1539 1538 1537
1495 1503 1489 1481 1481 1483 1490 1499 1521 1535 1550 1556 1543 1531 1524 1507 1503 1501 1502 1503 1506 1510 1512 1515 1519 1522 1524 1527 1529 1531 1532 1533 1534 1536 1537 1538 1539 1539 1539 1538 1538 1537 1536 1536
1488 1501 1497 1488 1490 1493 1493 1500 1514 1531 1537 1551 1553 1538 1503 1500 1498 1499 1501 1502 1505 1508 1511 1514 1517 1521 1524 1526 1528 1530 1532 1532 1533 1535 1536 1537 1537 1537 1537 1537 1536 1536 1535 1534
1483 1498 1506 1496 1483 1479 1485 1494 1509 1528 1534 1538 1543 1533 1494 1494 1494 1496 1500 1503 1505 1508 1511 1514 1517 1521 1524 1526 1528 1530 1531 1532 1533 1534 1535 1536 1536 1536 1536 1535 1535 1534 1533 1533
1479 1497 1512 1510 1500 1486 1486 1489 1498 1510 1525 1536 1540 1527 1495 1494 1495 1498 1500 1503 1505 1509 1512 1515 1518 1521 1523 1526 1527 1529 1530 1531 1532 1533 1534 1535 1535 1535 1535 1534 1533 1533 1532 1531
1469 1490 1503 1512 1505 1493 1490 1488 1491 1506 1523 1527 1523 1515 1503 1499 1499 1500 1502 1504 1506 1509 1511 1514 1517 1520 1523 1525 1527 1529 1529 1530 1532 1533 1533 1534 1534 1534 1534 1533 1533 1532 1531 1531
1467 1485 1486 1486 1483 1482 1484 1485 1487 1496 1504 1513 1510 1508 1501 1497 1497 1499 1502 1505 1507 1509 1511 1514 1516 1519 1522 1524 1526 1528 1529 1530 1531 1532 1533 1533 1533 1534 1533 1533 1532 1532 1531 1530
1470 1480 1482 1484 1479 1479 1483 1482 1483 1486 1490 1495 1498 1500 1491 1493 1495 1498 1501 1503 1506 1508 1510 1513 1516 1518 1521 1523 1525 1526 1528 1530 1531 1532 1532 1533 1533 1533 1533 1532 1532 1531 1531 1531
1475 1481 1491 1496 1484 1484 1494 1483 1482 1483 1483 1487 1496 1494 1489 1493 1494 1496 1499 1501 1504 1507 1509 1512 1515 1518 1520 1522 1524 1525 1527 1529 1530 1531 1532 1532 1532 1532 1532 1532 1532 1532 1531 1531
1474 1483 1494 1497 1493 1506 1492 1473 1474 1479 1481 1479 1481 1483 1485 1487 1491 1495 1497 1499 1503 1506 1509 1512 1515 1517 1519 1521 1523 1525 1527 1528 1530 1531 1531 1532 1532 1532 1533 1533 1533 1532 1532 1532
1466 1479 1493 1503 1504 1498 1483 1473 1473 1479 1484 1477 1479 1481 1484 1487 1493 1498 1499 1500 1502 1505 1508 1511 1514 1516 1518 1521 1522 1524 1525 1527 1529 1530 1531 1532 1532 1533 1533 1533 1533 1534 1534 1534
1467 1473 1489 1499 1502 1505 1487 1471 1469 1474 1488 1477 1476 1479 1482 1486 1497 1500 1499 1500 1503 1506 1508 1511 1514 1516 1518 1520 1521 1523 1524 1526 1527 1529 1531 1532 1533 1533 1533 1534 1534 1535 1535 1535
1479 1483 1490 1496 1498 1493 1476 1469 1469 1489 1489 1476 1475 1476 1479 1483 1488 1493 1497 1500 1503 1506 1508 1510 1513 1515 1517 1519 1521 1522 1523 1525 1527 1529 1530 1532 1533 1534 1534 1535 1535 1536 1537 1537
1482 1488 1491 1495 1500 1497 1473 1470 1476 1479 1474 1474 1474 1475 1478 1481 1487 1491 1495 1499 1502 1505 1508 1510 1512 1514 1516 1518 1520 1521 1522 1524 1526 1528 1530 1532 1533 1534 1535 1535 1536 1537 1538 1538
1478 1479 1481 1485 1487 1477 1472 1471 1472 1472 1473 1474 1474 1476 1478 1482 1486 1491 1495 1498 1502 1504 1507 1509 1511 1513 1516 1518 1519 1521 1522 1524 1526 1528 1529 1531 1533 1534 1535 1536 1536 1537 1538 1539
1475 1472 1475 1479 1477 1474 1473 1472 1472 1472 1472 1474 1475 1477 1479 1482 1487 1491 1495 1498 1501 1504 1506 1508 1510 1512 1515 1517 1519 1520 1522 1523 1525 1527 1529 1530 1532 1534 1535 1536 1537 1538 1539 1539
1477 1474 1476 1479 1477 1475 1475 1475 1474 1474 1474 1476 1478 1479 1481 1483 1487 1491 1494 1498 1501 1503 1506 1508 1510 1512 1514 1516 1518 1520 1521 1523 1525 1527 1529 1530 1532 1534 1535 1536 1537 1538 1539 1540
1477 1478 1480 1482 1478 1478 1478 1477 1476 1475 1476 1477 1479 1481 1484 1485 1488 1491 1495 1498 1501 1503 1506 1508 1510 1512 1514 1516 1518 1519 1521 1523 1524 1526 1528 1530 1532 1533 1534 1536 1537 1538 1539 1540